SWA133 KBNA-KOMA

Flight info

Callsign SWA133
Flight time 1h 31m
Altitude 32000
Route PARDN3 NAKIY SLVER DIXEE LMN MARWI4
Aircraft B738/M-SDE2E3FGHIRWXY/LB1

Departure

Time 2026-04-26 16:42
Airport Nashville International Airport (KBNA)

Arrival

Time 2026-04-26 18:14
Airport Eppley Airfield (KOMA)
Time Latitude Longitude Altitude Speed Heading
2026-04-26 16:18 36.12870 -86.66938 574 ft 0 kts 248°
2026-04-26 16:29 36.12872 -86.66931 574 ft 4 kts 245°
2026-04-26 16:29 36.12887 -86.66906 576 ft 4 kts 207°
2026-04-26 16:29 36.12909 -86.66904 572 ft 4 kts 149°
2026-04-26 16:30 36.12921 -86.66915 574 ft 2 kts 131°
2026-04-26 16:30 36.12922 -86.66917 574 ft 2 kts 131°
2026-04-26 16:33 36.12912 -86.66903 576 ft 7 kts 131°
2026-04-26 16:34 36.12873 -86.66848 573 ft 9 kts 131°
2026-04-26 16:34 36.12829 -86.66789 572 ft 9 kts 134°
2026-04-26 16:34 36.12786 -86.66758 573 ft 7 kts 181°
2026-04-26 16:34 36.12748 -86.66788 575 ft 7 kts 219°
2026-04-26 16:35 36.12713 -86.66823 576 ft 6 kts 219°
2026-04-26 16:35 36.12678 -86.66858 577 ft 6 kts 219°
2026-04-26 16:35 36.12654 -86.66901 577 ft 6 kts 218°
2026-04-26 16:35 36.12614 -86.66918 578 ft 6 kts 182°
2026-04-26 16:36 36.12573 -86.66905 581 ft 6 kts 166°
2026-04-26 16:36 36.12534 -86.66918 580 ft 6 kts 208°
2026-04-26 16:36 36.12497 -86.66943 581 ft 6 kts 209°
2026-04-26 16:36 36.12460 -86.66963 582 ft 6 kts 204°
2026-04-26 16:37 36.12425 -86.66989 583 ft 7 kts 211°
2026-04-26 16:37 36.12373 -86.66980 584 ft 9 kts 136°
2026-04-26 16:37 36.12297 -86.66866 583 ft 21 kts 119°
2026-04-26 16:37 36.12251 -86.66699 581 ft 19 kts 107°
2026-04-26 16:38 36.12185 -86.66555 575 ft 21 kts 167°
2026-04-26 16:38 36.12046 -86.66600 583 ft 20 kts 198°
2026-04-26 16:38 36.11913 -86.66652 586 ft 20 kts 198°
2026-04-26 16:38 36.11784 -86.66702 590 ft 19 kts 198°
2026-04-26 16:39 36.11660 -86.66753 593 ft 18 kts 198°
2026-04-26 16:39 36.11540 -86.66799 596 ft 18 kts 197°
2026-04-26 16:39 36.11424 -86.66843 599 ft 17 kts 198°
2026-04-26 16:39 36.11337 -86.66874 599 ft 10 kts 175°
2026-04-26 16:40 36.11319 -86.66865 599 ft 0 kts 148°
2026-04-26 16:40 36.11318 -86.66864 599 ft 2 kts 146°
2026-04-26 16:41 36.11292 -86.66788 598 ft 14 kts 88°
2026-04-26 16:41 36.11349 -86.66734 599 ft 10 kts 19°
2026-04-26 16:41 36.11352 -86.66732 599 ft 0 kts 19°
2026-04-26 16:42 36.11353 -86.66732 599 ft 4 kts 19°
2026-04-26 16:42 36.11686 -86.66599 593 ft 97 kts 18°
2026-04-26 16:42 36.12594 -86.66223 583 ft 175 kts 21°
2026-04-26 16:42 36.13846 -86.65698 1498 ft 190 kts 19°
2026-04-26 16:43 36.15168 -86.65142 2319 ft 212 kts 19°
2026-04-26 16:43 36.16583 -86.64480 3272 ft 214 kts 24°
2026-04-26 16:43 36.17895 -86.63809 4376 ft 204 kts 18°
2026-04-26 16:43 36.19390 -86.63654 4790 ft 230 kts 349°
2026-04-26 16:44 36.20858 -86.64520 5380 ft 242 kts 318°
2026-04-26 16:44 36.21758 -86.66204 6470 ft 230 kts 294°
2026-04-26 16:44 36.22102 -86.68199 7027 ft 249 kts 273°
2026-04-26 16:44 36.21972 -86.70439 7498 ft 271 kts 265°
2026-04-26 16:45 36.21909 -86.72862 8114 ft 282 kts 272°
2026-04-26 16:45 36.22021 -86.75291 9043 ft 283 kts 275°
2026-04-26 16:45 36.22206 -86.77728 9955 ft 285 kts 276°
2026-04-26 16:45 36.22431 -86.80191 10590 ft 296 kts 277°
2026-04-26 16:46 36.22696 -86.82834 10777 ft 323 kts 277°
2026-04-26 16:46 36.23000 -86.85687 11066 ft 343 kts 277°
2026-04-26 16:46 36.23317 -86.88650 11676 ft 351 kts 277°
2026-04-26 16:46 36.23648 -86.91701 12474 ft 353 kts 277°
2026-04-26 16:47 36.23983 -86.94725 13264 ft 356 kts 277°
2026-04-26 16:47 36.24327 -86.97788 13948 ft 361 kts 277°
2026-04-26 16:47 36.24678 -87.00882 14626 ft 364 kts 277°
2026-04-26 16:47 36.25032 -87.03988 15389 ft 365 kts 277°
2026-04-26 16:48 36.25388 -87.07111 16137 ft 367 kts 277°
2026-04-26 16:48 36.25744 -87.10250 16797 ft 370 kts 277°
2026-04-26 16:48 36.26103 -87.13421 17465 ft 373 kts 277°
2026-04-26 16:48 36.26464 -87.16612 18141 ft 375 kts 277°
2026-04-26 16:49 36.26825 -87.19817 18736 ft 378 kts 277°
2026-04-26 16:49 36.27200 -87.23059 19315 ft 380 kts 278°
2026-04-26 16:49 36.27676 -87.26293 19885 ft 383 kts 280°
2026-04-26 16:49 36.28213 -87.29539 20473 ft 385 kts 281°
2026-04-26 16:50 36.28763 -87.32803 21041 ft 388 kts 281°
2026-04-26 16:50 36.29310 -87.36086 21586 ft 391 kts 281°
2026-04-26 16:50 36.29852 -87.39403 22130 ft 393 kts 281°
2026-04-26 16:50 36.30388 -87.42732 22659 ft 396 kts 281°
2026-04-26 16:51 36.30927 -87.46099 23169 ft 398 kts 281°
2026-04-26 16:51 36.31564 -87.49443 23682 ft 401 kts 287°
2026-04-26 16:51 36.32583 -87.52676 24109 ft 404 kts 296°
2026-04-26 16:51 36.33959 -87.55782 24601 ft 405 kts 298°
2026-04-26 16:52 36.35332 -87.58777 25064 ft 406 kts 298°
2026-04-26 16:52 36.35801 -87.59797 25215 ft 406 kts 298°
2026-04-26 16:52 36.38144 -87.64912 25967 ft 408 kts 297°
2026-04-26 16:52 36.39541 -87.67986 26393 ft 409 kts 297°
2026-04-26 16:53 36.40934 -87.71070 26790 ft 411 kts 297°
2026-04-26 16:53 36.42327 -87.74167 27203 ft 412 kts 297°
2026-04-26 16:53 36.43720 -87.77272 27664 ft 411 kts 297°
2026-04-26 16:53 36.45103 -87.80356 28283 ft 407 kts 297°
2026-04-26 16:54 36.46470 -87.83410 28951 ft 402 kts 297°
2026-04-26 16:54 36.47821 -87.86432 29565 ft 398 kts 297°
2026-04-26 16:54 36.49159 -87.89427 30140 ft 395 kts 297°
2026-04-26 16:54 36.50486 -87.92402 30590 ft 393 kts 296°
2026-04-26 16:55 36.51379 -87.94403 30875 ft 392 kts 296°
2026-04-26 16:55 36.52698 -87.97364 31295 ft 390 kts 296°
2026-04-26 16:55 36.54009 -88.00309 31676 ft 390 kts 296°
2026-04-26 16:55 36.55323 -88.03265 32008 ft 391 kts 296°
2026-04-26 16:56 36.59308 -88.12241 32023 ft 391 kts 296°
2026-04-26 16:57 36.61917 -88.18128 32029 ft 388 kts 296°
2026-04-26 16:57 36.66236 -88.26728 32032 ft 394 kts 306°
2026-04-26 16:58 36.69190 -88.31048 32032 ft 395 kts 306°
2026-04-26 16:59 36.75139 -88.39755 32031 ft 395 kts 306°
2026-04-26 17:00 36.82231 -88.50244 32019 ft 395 kts 306°
2026-04-26 17:00 36.87558 -88.58154 32012 ft 394 kts 306°
2026-04-26 17:01 36.91082 -88.63398 32013 ft 394 kts 306°
2026-04-26 17:01 36.94600 -88.68643 32010 ft 394 kts 306°
2026-04-26 17:02 36.98117 -88.73892 32028 ft 394 kts 306°
2026-04-26 17:02 37.01654 -88.79181 32021 ft 394 kts 306°
2026-04-26 17:03 37.05167 -88.84441 32025 ft 394 kts 306°
2026-04-26 17:03 37.08678 -88.89707 32023 ft 394 kts 306°
2026-04-26 17:04 37.12187 -88.94979 32016 ft 394 kts 306°
2026-04-26 17:04 37.15699 -89.00264 32010 ft 394 kts 306°
2026-04-26 17:05 37.19233 -89.05590 32011 ft 394 kts 305°
2026-04-26 17:05 37.22737 -89.10879 32016 ft 394 kts 306°
2026-04-26 17:06 37.26245 -89.16182 32015 ft 395 kts 306°
2026-04-26 17:06 37.29751 -89.21493 32003 ft 395 kts 306°
2026-04-26 17:07 37.33262 -89.26819 32003 ft 396 kts 306°
2026-04-26 17:07 37.36771 -89.32149 32001 ft 396 kts 306°
2026-04-26 17:08 37.40306 -89.37529 32001 ft 396 kts 306°
2026-04-26 17:08 37.43813 -89.42873 32002 ft 396 kts 306°
2026-04-26 17:09 37.46724 -89.47317 32003 ft 396 kts 306°
2026-04-26 17:09 37.50814 -89.53571 32002 ft 395 kts 306°
2026-04-26 17:10 37.54328 -89.58952 32004 ft 395 kts 306°
2026-04-26 17:10 37.57821 -89.64312 32004 ft 395 kts 306°
2026-04-26 17:11 37.61304 -89.69663 32012 ft 395 kts 306°
2026-04-26 17:11 37.64789 -89.75027 32007 ft 395 kts 306°
2026-04-26 17:12 37.70038 -89.83125 32008 ft 396 kts 306°
2026-04-26 17:13 37.75263 -89.91203 32010 ft 396 kts 306°
2026-04-26 17:14 37.80492 -89.99309 32011 ft 397 kts 306°
2026-04-26 17:14 37.85723 -90.07438 32018 ft 397 kts 306°
2026-04-26 17:15 37.90977 -90.15622 32015 ft 397 kts 306°
2026-04-26 17:16 37.94458 -90.21058 32022 ft 398 kts 306°
2026-04-26 17:16 37.97943 -90.26505 32018 ft 398 kts 306°
2026-04-26 17:17 38.01429 -90.31956 32026 ft 398 kts 306°
2026-04-26 17:17 38.04957 -90.37418 32020 ft 398 kts 306°
2026-04-26 17:18 38.08454 -90.42829 32019 ft 398 kts 306°
2026-04-26 17:18 38.11959 -90.48266 32014 ft 398 kts 306°
2026-04-26 17:19 38.16650 -90.55566 32005 ft 399 kts 306°
2026-04-26 17:19 38.20155 -90.61031 32005 ft 399 kts 306°
2026-04-26 17:20 38.23067 -90.65579 32000 ft 399 kts 306°
2026-04-26 17:20 38.27160 -90.71981 31998 ft 399 kts 306°
2026-04-26 17:21 38.30667 -90.77477 32002 ft 399 kts 306°
2026-04-26 17:21 38.34167 -90.82971 31996 ft 400 kts 306°
2026-04-26 17:22 38.37690 -90.88511 31988 ft 400 kts 306°
2026-04-26 17:22 38.41186 -90.94019 32001 ft 399 kts 305°
2026-04-26 17:23 38.44681 -90.99534 31983 ft 400 kts 305°
2026-04-26 17:23 38.48171 -91.05049 31984 ft 400 kts 305°
2026-04-26 17:24 38.51662 -91.10579 31986 ft 400 kts 305°
2026-04-26 17:24 38.55149 -91.16108 31995 ft 400 kts 305°
2026-04-26 17:25 38.58669 -91.21609 31988 ft 401 kts 308°
2026-04-26 17:25 38.62570 -91.26812 31980 ft 403 kts 310°
2026-04-26 17:26 38.66510 -91.31899 31969 ft 403 kts 310°
2026-04-26 17:26 38.70383 -91.36937 31974 ft 402 kts 310°
2026-04-26 17:27 38.74297 -91.42072 31965 ft 403 kts 310°
2026-04-26 17:27 38.78229 -91.47255 31967 ft 403 kts 310°
2026-04-26 17:28 38.82137 -91.52421 31962 ft 404 kts 310°
2026-04-26 17:28 38.86074 -91.57633 31971 ft 404 kts 310°
2026-04-26 17:29 38.89329 -91.61948 31965 ft 405 kts 310°
2026-04-26 17:29 38.93900 -91.68019 31973 ft 405 kts 310°
2026-04-26 17:30 38.97840 -91.73261 31977 ft 405 kts 310°
2026-04-26 17:30 39.01754 -91.78476 31976 ft 405 kts 310°
2026-04-26 17:31 39.05672 -91.83707 31984 ft 406 kts 310°
2026-04-26 17:31 39.09577 -91.88930 31982 ft 406 kts 310°
2026-04-26 17:32 39.13487 -91.94168 31978 ft 406 kts 310°
2026-04-26 17:32 39.17427 -91.99454 31970 ft 406 kts 310°
2026-04-26 17:33 39.21339 -92.04713 31975 ft 406 kts 310°
2026-04-26 17:34 39.27195 -92.12600 31969 ft 406 kts 309°
2026-04-26 17:34 39.31096 -92.17867 31968 ft 406 kts 309°
2026-04-26 17:35 39.35027 -92.23183 31973 ft 406 kts 309°
2026-04-26 17:35 39.38928 -92.28469 31979 ft 407 kts 309°
2026-04-26 17:36 39.42819 -92.33749 31984 ft 407 kts 309°
2026-04-26 17:36 39.46650 -92.38956 31979 ft 407 kts 309°
2026-04-26 17:37 39.50558 -92.44277 31987 ft 408 kts 309°
2026-04-26 17:37 39.54464 -92.49605 31981 ft 408 kts 309°
2026-04-26 17:38 39.60351 -92.57653 31979 ft 409 kts 309°
2026-04-26 17:38 39.64259 -92.63008 31959 ft 409 kts 309°
2026-04-26 17:39 39.68192 -92.68406 31965 ft 409 kts 309°
2026-04-26 17:39 39.72099 -92.73777 31956 ft 409 kts 309°
2026-04-26 17:40 39.74708 -92.77369 31954 ft 409 kts 309°
2026-04-26 17:40 39.79897 -92.84528 31955 ft 409 kts 309°
2026-04-26 17:41 39.83797 -92.89919 31951 ft 409 kts 309°
2026-04-26 17:41 39.87066 -92.94445 31946 ft 409 kts 309°
2026-04-26 17:42 39.90958 -92.99841 31945 ft 409 kts 309°
2026-04-26 17:42 39.94856 -93.05258 31943 ft 409 kts 309°
2026-04-26 17:43 39.98774 -93.10710 31947 ft 410 kts 309°
2026-04-26 17:43 40.02669 -93.16141 31940 ft 410 kts 309°
2026-04-26 17:44 40.06561 -93.21577 31943 ft 410 kts 309°
2026-04-26 17:44 40.10456 -93.27027 31939 ft 410 kts 308°
2026-04-26 17:45 40.14302 -93.32419 31938 ft 410 kts 308°
2026-04-26 17:45 40.18194 -93.37884 31934 ft 411 kts 308°
2026-04-26 17:46 40.22084 -93.43356 31928 ft 411 kts 308°
2026-04-26 17:46 40.25970 -93.48833 31931 ft 410 kts 308°
2026-04-26 17:47 40.29223 -93.53426 31933 ft 410 kts 308°
2026-04-26 17:47 40.33736 -93.59807 31915 ft 403 kts 308°
2026-04-26 17:48 40.37541 -93.65194 31933 ft 399 kts 308°
2026-04-26 17:48 40.41310 -93.70550 31939 ft 400 kts 308°
2026-04-26 17:49 40.43175 -93.73199 31923 ft 389 kts 308°
2026-04-26 17:49 40.44983 -93.75765 31921 ft 375 kts 308°
2026-04-26 17:49 40.46720 -93.78232 31919 ft 362 kts 308°
2026-04-26 17:49 40.48427 -93.80664 31684 ft 356 kts 307°
2026-04-26 17:50 40.50136 -93.83114 30525 ft 374 kts 307°
2026-04-26 17:50 40.51946 -93.85715 29339 ft 394 kts 308°
2026-04-26 17:50 40.53796 -93.88354 28878 ft 390 kts 308°
2026-04-26 17:50 40.55574 -93.90891 28382 ft 389 kts 308°
2026-04-26 17:51 40.57398 -93.93496 27958 ft 385 kts 308°
2026-04-26 17:51 40.59103 -93.96168 27514 ft 377 kts 297°
2026-04-26 17:51 40.60183 -93.99241 26947 ft 369 kts 282°
2026-04-26 17:51 40.60767 -94.02554 26513 ft 365 kts 279°
2026-04-26 17:52 40.61292 -94.05818 26053 ft 363 kts 279°
2026-04-26 17:52 40.61803 -94.09051 25644 ft 360 kts 279°
2026-04-26 17:52 40.62315 -94.12267 25228 ft 357 kts 279°
2026-04-26 17:52 40.62835 -94.15500 24814 ft 355 kts 279°
2026-04-26 17:53 40.63343 -94.18621 24426 ft 352 kts 279°
2026-04-26 17:53 40.63856 -94.21760 24030 ft 350 kts 279°
2026-04-26 17:53 40.64373 -94.24915 23636 ft 347 kts 279°
2026-04-26 17:54 40.65376 -94.31026 22764 ft 343 kts 279°
2026-04-26 17:54 40.65877 -94.34078 22348 ft 340 kts 279°
2026-04-26 17:54 40.66372 -94.37102 21972 ft 336 kts 279°
2026-04-26 17:54 40.66862 -94.40103 21568 ft 334 kts 279°
2026-04-26 17:55 40.67349 -94.43080 21196 ft 331 kts 279°
2026-04-26 17:55 40.67829 -94.46032 20815 ft 329 kts 279°
2026-04-26 17:55 40.68308 -94.48975 20445 ft 327 kts 279°
2026-04-26 17:55 40.68782 -94.51891 20075 ft 325 kts 279°
2026-04-26 17:56 40.69252 -94.54795 19707 ft 323 kts 279°
2026-04-26 17:56 40.70185 -94.60563 18962 ft 320 kts 278°
2026-04-26 17:57 40.71107 -94.66287 18250 ft 318 kts 278°
2026-04-26 17:57 40.71565 -94.69141 17835 ft 318 kts 278°
2026-04-26 17:57 40.72021 -94.71984 17444 ft 316 kts 278°
2026-04-26 17:57 40.72474 -94.74809 17061 ft 315 kts 278°
2026-04-26 17:58 40.73824 -94.83263 15969 ft 311 kts 278°
2026-04-26 17:59 40.74708 -94.88824 15255 ft 310 kts 278°
2026-04-26 17:59 40.75149 -94.91607 14905 ft 309 kts 278°
2026-04-26 17:59 40.75587 -94.94375 14539 ft 309 kts 278°
2026-04-26 17:59 40.76026 -94.97151 14177 ft 309 kts 278°
2026-04-26 18:00 40.76465 -94.99930 13803 ft 310 kts 278°
2026-04-26 18:00 40.76904 -95.02711 13405 ft 311 kts 278°
2026-04-26 18:00 40.77344 -95.05500 13019 ft 311 kts 278°
2026-04-26 18:00 40.77895 -95.08301 12627 ft 313 kts 290°
2026-04-26 18:01 40.79081 -95.10768 12027 ft 325 kts 304°
2026-04-26 18:01 40.80500 -95.13117 11571 ft 328 kts 306°
2026-04-26 18:01 40.81935 -95.15440 11189 ft 327 kts 306°
2026-04-26 18:01 40.83370 -95.17769 10821 ft 326 kts 306°
2026-04-26 18:02 40.84814 -95.20131 10433 ft 326 kts 305°
2026-04-26 18:02 40.85276 -95.20890 10325 ft 326 kts 306°
2026-04-26 18:02 40.87600 -95.24733 10063 ft 313 kts 305°
2026-04-26 18:02 40.88942 -95.26961 9907 ft 306 kts 304°
2026-04-26 18:03 40.90244 -95.29129 9839 ft 295 kts 304°
2026-04-26 18:03 40.91532 -95.31283 9349 ft 301 kts 304°
2026-04-26 18:03 40.92830 -95.33455 8985 ft 302 kts 305°
2026-04-26 18:03 40.94129 -95.35631 8669 ft 301 kts 305°
2026-04-26 18:04 40.95424 -95.37798 8351 ft 300 kts 305°
2026-04-26 18:04 40.96717 -95.39962 8048 ft 300 kts 305°
2026-04-26 18:04 40.97575 -95.41399 7827 ft 300 kts 305°
2026-04-26 18:05 41.00243 -95.46733 7013 ft 295 kts 276°
2026-04-26 18:05 41.00109 -95.49337 6733 ft 279 kts 243°
2026-04-26 18:05 40.99169 -95.51506 6561 ft 268 kts 231°
2026-04-26 18:05 40.98446 -95.52845 6477 ft 262 kts 229°
2026-04-26 18:06 40.97574 -95.54955 6223 ft 269 kts 253°
2026-04-26 18:06 40.97673 -95.57450 5992 ft 280 kts 285°
2026-04-26 18:06 40.98577 -95.59750 5747 ft 287 kts 306°
2026-04-26 18:06 41.00036 -95.61538 5565 ft 283 kts 324°
2026-04-26 18:07 41.01632 -95.63002 5474 ft 268 kts 326°
2026-04-26 18:07 41.03137 -95.64347 5364 ft 255 kts 326°
2026-04-26 18:07 41.04560 -95.65622 5270 ft 242 kts 325°
2026-04-26 18:07 41.05490 -95.66460 5205 ft 234 kts 326°
2026-04-26 18:08 41.07277 -95.68082 4742 ft 228 kts 326°
2026-04-26 18:08 41.08558 -95.69252 4569 ft 220 kts 326°
2026-04-26 18:08 41.09809 -95.70398 4489 ft 215 kts 325°
2026-04-26 18:08 41.11020 -95.71479 4349 ft 205 kts 329°
2026-04-26 18:09 41.12193 -95.72466 4273 ft 195 kts 327°
2026-04-26 18:09 41.13288 -95.73447 4267 ft 186 kts 325°
2026-04-26 18:09 41.14371 -95.74454 4014 ft 185 kts 324°
2026-04-26 18:09 41.15404 -95.75427 3844 ft 180 kts 324°
2026-04-26 18:10 41.16395 -95.76368 3685 ft 174 kts 324°
2026-04-26 18:10 41.17373 -95.77298 3503 ft 168 kts 325°
2026-04-26 18:10 41.18284 -95.78163 3347 ft 159 kts 325°
2026-04-26 18:10 41.19185 -95.79020 3238 ft 162 kts 325°
2026-04-26 18:11 41.20114 -95.79904 3105 ft 168 kts 326°
2026-04-26 18:11 41.21073 -95.80814 2872 ft 168 kts 326°
2026-04-26 18:11 41.22027 -95.81720 2649 ft 165 kts 326°
2026-04-26 18:11 41.22957 -95.82605 2432 ft 162 kts 327°
2026-04-26 18:12 41.23871 -95.83474 2211 ft 161 kts 327°
2026-04-26 18:12 41.24773 -95.84331 1987 ft 158 kts 328°
2026-04-26 18:12 41.25652 -95.85164 1778 ft 150 kts 326°
2026-04-26 18:12 41.26522 -95.85991 1586 ft 160 kts 327°
2026-04-26 18:13 41.27417 -95.86853 1484 ft 155 kts 326°
2026-04-26 18:13 41.28281 -95.87715 1309 ft 159 kts 326°
2026-04-26 18:13 41.29199 -95.88559 1085 ft 161 kts 327°
2026-04-26 18:13 41.29807 -95.89127 1001 ft 154 kts 328°
2026-04-26 18:14 41.30767 -95.90022 991 ft 87 kts 324°
2026-04-26 18:14 41.31092 -95.90329 996 ft 38 kts 324°
2026-04-26 18:14 41.31294 -95.90521 997 ft 27 kts 324°
2026-04-26 18:14 41.31368 -95.90657 995 ft 12 kts 231°
2026-04-26 18:15 41.31286 -95.90683 993 ft 12 kts 167°
2026-04-26 18:15 41.31213 -95.90622 993 ft 12 kts 144°
2026-04-26 18:15 41.31145 -95.90557 994 ft 12 kts 144°
2026-04-26 18:15 41.31078 -95.90493 993 ft 12 kts 144°
2026-04-26 18:16 41.31010 -95.90427 991 ft 13 kts 145°
2026-04-26 18:16 41.30847 -95.90276 987 ft 18 kts 144°
2026-04-26 18:16 41.30731 -95.90240 988 ft 19 kts 205°
2026-04-26 18:17 41.30616 -95.90185 988 ft 18 kts 142°
2026-04-26 18:17 41.30520 -95.90079 989 ft 17 kts 140°
2026-04-26 18:17 41.30430 -95.89985 990 ft 15 kts 150°
2026-04-26 18:17 41.30356 -95.89923 996 ft 12 kts 146°
2026-04-26 18:18 41.30287 -95.89859 994 ft 12 kts 143°
2026-04-26 18:18 41.30228 -95.89784 988 ft 12 kts 133°
2026-04-26 18:18 41.30164 -95.89719 993 ft 11 kts 147°
2026-04-26 18:18 41.30091 -95.89687 988 ft 12 kts 175°
2026-04-26 18:19 41.30010 -95.89687 987 ft 11 kts 180°
2026-04-26 18:19 41.29930 -95.89687 989 ft 11 kts 178°
2026-04-26 18:19 41.29853 -95.89685 992 ft 11 kts 178°
2026-04-26 18:19 41.29782 -95.89682 988 ft 8 kts 179°
2026-04-26 18:20 41.29748 -95.89707 991 ft 5 kts 237°
2026-04-26 18:20 41.29750 -95.89755 989 ft 5 kts 281°
2026-04-26 18:20 41.29751 -95.89767 991 ft 0 kts 281°